GFSWCAN_sfc_thetae_132.txt.gz
Theta_e
294 293 294 294 294 295 296 296 297 297 297 298 298 299 299 300 300 294 291 295 294 290 291 292 293 289 289 289 284 288 287 289 287 283 282 283 282 284 284 285 284 283 282 282 283 280 279 292 288 284 288 290 291 292
295 295 294 295 295 295 296 296 296 296 297 297 298 299 299 299 299 296 289 296 298 290 290 295 295 296 294 293 291 290 287 287 289 285 285 287 283 287 285 280 289 283 288 286 286 286 289 292 289 291 291 290 291 292
294 295 295 295 295 296 296 296 296 295 296 297 297 298 299 299 299 296 292 295 294 289 290 290 289 294 296 296 299 288 290 291 290 290 286 285 283 289 283 284 287 290 292 288 287 290 287 290 289 289 290 290 290 290
293 294 295 296 296 296 296 296 296 296 296 296 297 298 298 298 298 297 294 298 296 292 285 287 295 293 297 297 295 296 293 295 294 293 288 285 283 290 287 288 288 290 289 288 288 287 284 287 290 290 288 288 286 286
294 293 295 296 296 296 296 296 296 296 296 297 297 298 298 298 299 298 299 299 298 291 284 286 292 295 296 295 294 294 293 292 290 287 285 284 290 288 289 288 286 290 288 285 286 290 289 290 291 289 286 285 285 284
296 294 295 296 296 296 296 296 296 295 295 297 298 298 298 298 298 294 287 296 300 298 288 282 293 292 294 295 293 292 292 292 291 288 286 290 292 289 284 284 290 291 291 293 290 290 288 289 289 289 286 285 285 285
296 295 295 295 295 295 296 296 296 297 297 297 298 298 298 298 299 292 291 296 298 298 288 284 285 292 293 294 293 292 293 291 290 288 286 288 289 289 287 284 287 288 289 289 289 287 283 285 283 286 286 285 285 285
296 295 295 295 295 296 296 296 297 297 297 298 298 298 298 298 296 294 299 298 299 292 291 282 283 287 293 287 286 293 288 289 290 289 289 287 288 288 284 289 285 285 286 286 287 287 288 287 285 284 285 284 283 282
295 295 295 295 296 296 296 296 297 297 298 298 297 297 297 294 290 292 298 297 293 292 283 283 280 281 288 287 289 289 290 284 289 285 287 288 286 284 288 287 285 286 286 285 286 286 285 283 282 282 283 283 282 281
298 297 296 295 295 296 296 297 297 297 297 297 296 290 285 291 298 298 293 288 288 288 288 284 289 284 288 286 287 287 288 286 283 286 289 285 286 287 287 289 289 288 288 287 283 281 282 281 281 282 282 283 282 281
298 299 299 299 299 297 296 297 297 297 297 292 289 287 294 298 293 289 284 283 284 282 285 286 288 286 287 286 287 290 287 287 282 284 285 284 283 285 288 288 289 289 287 287 287 288 287 285 282 281 282 282 282 282
299 299 299 298 298 298 298 298 298 295 294 294 293 294 293 289 286 283 281 284 283 282 288 286 287 289 288 291 288 288 285 285 279 287 284 281 284 286 287 287 287 288 287 286 287 286 286 284 284 282 282 282 283 283
299 299 299 299 298 298 298 298 298 298 298 296 290 287 286 285 280 279 278 281 283 286 287 287 286 289 289 289 286 285 283 282 286 283 281 284 284 286 287 287 286 288 286 286 286 286 285 284 284 283 282 283 282 280
299 299 299 299 299 299 299 300 299 297 295 288 284 279 281 280 282 283 284 285 286 289 290 291 288 288 289 286 285 281 281 284 280 278 279 285 284 285 287 287 285 284 284 284 284 284 283 282 282 283 282 282 281 279
297 297 298 298 299 299 299 299 299 299 292 286 285 280 281 285 285 286 287 289 288 291 291 288 288 289 285 282 284 282 278 278 280 280 284 285 286 285 285 286 285 284 282 282 283 281 281 280 280 281 281 281 281 279
296 296 295 297 298 299 299 299 298 295 291 287 285 283 286 284 283 285 286 286 292 290 291 290 285 283 281 282 279 278 277 276 281 283 284 285 285 285 285 285 285 285 284 283 283 282 281 280 280 281 280 280 279 279
296 294 295 297 296 297 296 295 294 288 287 284 283 286 284 285 284 286 285 290 292 291 287 287 280 277 284 281 279 282 281 282 283 283 284 286 286 285 285 285 284 283 283 283 282 282 281 281 280 279 278 279 279 278
293 295 295 296 296 295 295 293 289 286 282 285 283 284 286 285 285 287 288 290 291 289 288 284 287 280 280 278 280 283 283 283 285 286 286 286 286 286 286 285 284 284 283 282 282 282 281 280 280 280 280 279 278 277
294 294 294 295 295 293 288 288 290 282 282 285 286 286 287 286 287 287 288 290 291 292 290 287 282 282 282 284 283 284 285 285 284 284 284 285 286 285 285 284 283 283 283 282 282 283 283 283 283 282 281 279 278 278
292 293 292 292 295 290 285 285 290 285 283 285 286 286 286 286 286 287 288 289 289 288 284 283 283 284 285 286 288 288 287 287 285 283 283 284 285 284 284 284 285 283 283 282 282 282 282 281 281 281 280 280 279 278
292 292 291 293 291 290 286 285 284 285 285 284 285 286 285 287 286 286 286 288 287 284 284 286 286 285 287 288 288 288 286 286 285 285 285 283 284 284 283 284 283 283 283 282 282 281 281 281 281 281 280 280 281 280
291 290 290 290 287 286 285 287 286 286 285 285 285 286 284 283 284 285 286 285 283 285 285 287 287 286 285 285 286 287 286 286 285 284 283 283 283 282 283 283 283 282 282 282 283 281 281 281 281 280 280 280 279 279
289 290 288 286 282 282 280 287 282 283 279 281 284 280 281 282 284 286 283 283 282 285 286 288 287 287 285 285 285 285 285 284 283 284 283 284 285 285 284 284 284 283 281 281 283 282 280 280 279 279 279 278 278 276
287 282 279 279 281 278 281 281 285 282 282 281 280 276 279 282 284 282 280 283 283 285 286 286 287 285 285 284 283 283 284 285 284 284 284 282 281 281 283 284 284 284 284 283 282 281 279 279 278 278 278 277 276 275
279 276 278 275 279 277 276 277 276 279 276 278 276 277 279 283 279 278 279 281 283 284 285 286 286 286 285 284 284 283 283 284 283 282 283 283 283 282 282 282 282 282 283 281 280 279 278 278 278 277 277 277 276 275
273 275 276 275 278 276 276 275 275 276 277 276 277 280 282 279 275 275 280 283 284 284 285 285 285 285 284 285 283 283 283 286 285 284 284 283 283 283 282 280 280 280 282 283 281 279 278 277 277 276 276 276 275 276
272 275 278 280 279 279 278 278 278 278 275 274 277 277 276 272 273 278 283 284 284 285 286 287 287 286 285 285 285 286 287 287 285 285 287 285 285 285 285 283 281 284 283 282 282 281 279 278 277 277 277 278 276 276
277 277 274 276 277 277 274 274 274 274 276 277 277 274 273 273 277 282 283 284 285 286 285 286 286 287 287 286 286 285 284 284 283 283 283 284 284 284 283 285 284 281 283 282 282 281 281 279 278 277 277 276 275 276
277 278 277 270 273 275 275 276 275 277 280 279 276 277 277 280 283 282 282 283 284 284 284 284 284 284 284 284 285 285 284 283 282 279 279 280 281 282 283 283 282 282 283 281 279 281 280 280 279 278 277 277 276 276
275 278 276 271 272 274 277 279 278 281 281 280 279 278 279 281 283 284 283 282 282 283 284 284 284 283 283 283 282 281 283 284 284 283 281 281 282 284 282 282 281 281 281 282 280 279 278 278 277 276 275 274 273 273
278 278 275 275 274 279 280 280 281 281 281 280 281 278 278 281 283 282 281 282 282 282 282 282 282 283 282 282 282 281 281 283 283 283 282 283 282 281 282 282 282 281 281 281 280 279 277 275 275 274 273 273 272 271
277 275 275 272 275 278 279 278 278 277 279 277 277 279 279 278 277 280 277 277 278 279 280 282 281 282 284 284 284 284 283 285 284 283 281 281 281 281 282 282 282 281 281 279 279 277 276 276 274 274 272 271 270 270
275 276 276 274 274 274 275 274 273 273 275 275 276 277 277 277 275 279 275 275 276 278 280 280 279 279 278 277 279 281 283 284 282 280 279 278 278 279 280 281 280 279 278 277 277 276 275 274 273 272 271 270 269 269

GFSWCAN_sfc_thetae_138.txt.gz
Theta_e
294 294 296 295 295 295 296 296 296 296 297 297 298 299 299 299 300 300 295 299 293 288 292 295 295 292 290 294 288 291 289 289 289 283 282 281 281 283 282 285 284 282 281 281 283 279 277 294 293 287 291 295 295 295
295 294 295 295 295 295 295 296 296 296 297 297 298 298 299 299 300 299 292 297 297 290 290 298 298 297 299 298 294 295 291 291 292 286 286 286 283 285 283 279 289 282 285 283 285 285 296 296 294 295 298 295 296 295
298 295 294 294 295 295 295 295 296 296 296 297 297 298 298 299 300 298 294 296 294 289 291 292 292 298 302 302 303 290 293 294 293 296 292 288 283 286 280 282 285 289 293 287 287 291 292 295 298 297 296 295 296 296
298 298 295 294 295 295 296 296 295 296 296 297 297 297 298 298 299 298 293 297 295 293 286 289 299 296 300 301 300 299 297 298 297 296 290 287 283 289 284 286 285 287 289 288 288 292 292 291 296 297 296 295 294 294
298 297 293 294 295 295 295 295 296 296 296 296 296 297 298 298 299 299 297 296 300 293 286 288 295 298 299 299 297 297 296 294 292 290 288 285 289 288 288 288 285 290 289 287 286 293 292 294 296 297 295 293 292 290
297 294 294 295 295 296 296 296 296 296 296 295 295 297 298 298 298 291 286 294 298 299 289 284 294 294 296 297 295 294 294 293 292 290 288 289 292 288 283 283 290 293 295 295 292 295 294 293 294 296 294 291 291 290
295 295 296 296 296 296 296 296 296 296 297 296 297 297 298 298 294 289 288 295 298 300 290 285 286 293 295 294 293 293 295 292 291 290 288 288 288 289 285 281 288 292 294 295 296 295 290 292 290 292 292 291 291 289
295 296 296 297 297 297 297 297 296 297 297 297 297 298 297 297 295 290 299 299 300 295 291 285 285 289 295 289 289 294 291 292 290 289 289 287 288 288 282 287 289 293 294 294 295 295 293 293 292 291 291 289 287 285
296 296 297 297 297 297 297 296 296 297 297 297 296 296 295 290 288 294 299 300 301 295 286 286 283 282 293 292 293 292 292 285 291 286 286 287 285 281 286 287 290 292 292 292 293 293 291 290 289 289 288 287 285 284
296 296 296 296 297 297 297 297 297 298 298 296 293 291 286 294 298 298 294 290 290 291 291 285 289 285 290 288 287 287 289 284 281 285 289 284 283 289 291 292 294 295 294 293 289 287 288 287 287 287 287 287 285 284
296 296 296 297 297 297 297 297 298 298 297 294 291 289 296 298 295 292 285 284 285 282 287 287 288 286 292 284 284 287 285 286 280 284 283 283 282 287 292 293 295 295 294 292 292 291 290 289 287 286 286 286 285 284
296 297 297 297 297 297 297 297 298 296 295 295 295 296 295 291 287 282 281 283 283 280 286 286 287 290 290 292 285 286 285 285 280 289 284 281 288 291 293 293 293 293 292 291 291 289 289 288 287 286 285 284 284 284
296 296 297 296 296 297 298 297 297 298 298 297 293 288 287 285 279 278 276 279 280 286 289 289 286 290 291 290 285 284 283 282 289 284 282 286 289 290 290 289 289 290 290 289 288 288 287 286 286 285 284 285 284 283
296 297 297 298 297 297 298 297 298 298 295 289 284 279 280 279 281 283 284 284 288 287 290 291 288 287 289 284 286 283 285 287 281 279 281 286 288 288 288 288 287 286 286 286 286 285 285 284 284 284 284 284 283 281
297 297 297 297 298 297 297 298 298 298 293 286 287 280 281 287 290 289 290 289 292 293 292 289 289 289 288 284 286 284 280 279 281 282 287 288 288 287 287 287 285 284 283 284 285 284 284 283 283 283 284 283 283 282
298 298 297 297 297 298 298 298 297 295 290 289 287 284 288 287 285 285 286 288 293 293 293 291 287 285 283 285 281 280 280 279 284 285 288 288 286 286 286 285 285 285 284 284 284 284 284 283 283 283 283 283 282 281
297 296 296 298 297 297 298 294 292 290 288 286 285 286 285 285 285 286 289 290 295 291 288 288 283 281 287 282 281 285 284 284 285 285 288 287 286 285 285 284 284 284 283 283 283 282 282 283 282 281 280 281 282 281
296 296 297 298 298 298 297 295 292 289 284 287 284 285 287 287 285 287 291 293 291 290 290 286 289 282 282 280 283 286 285 286 287 286 287 287 286 285 285 284 285 284 283 282 282 282 282 282 281 281 281 281 281 281
297 297 295 297 298 295 292 291 292 286 287 287 287 288 288 289 291 292 292 294 295 295 292 290 285 283 285 288 287 287 286 285 284 285 286 287 286 285 286 285 285 284 284 283 283 282 283 283 284 284 282 282 280 280
293 293 293 294 296 293 288 289 294 288 285 288 290 288 289 290 291 292 292 293 292 291 288 286 286 289 289 289 290 289 289 289 285 283 283 285 286 285 285 285 285 285 284 286 285 285 284 284 286 284 283 282 282 280
290 293 292 294 293 293 291 288 288 289 288 287 289 288 288 290 289 289 290 293 289 288 287 290 288 287 290 290 291 291 289 288 286 287 285 283 285 286 286 287 286 285 285 284 284 284 284 284 285 284 284 284 284 283
295 290 294 294 291 290 289 291 289 290 288 287 286 288 286 286 286 288 290 287 286 289 290 289 289 288 287 287 288 289 289 287 286 287 286 286 285 285 285 285 285 285 285 285 284 284 284 285 285 284 284 284 284 283
291 292 292 290 285 285 284 291 286 287 283 283 285 283 283 284 286 289 284 287 288 289 289 289 289 290 288 289 288 287 287 287 285 286 286 287 287 287 287 286 285 285 284 284 285 285 284 284 284 284 284 283 283 282
288 287 284 284 285 282 285 284 286 285 285 282 282 279 282 284 286 283 281 285 287 287 287 287 288 286 286 286 285 286 287 288 286 286 287 285 285 285 286 285 285 285 285 285 285 284 284 283 283 282 283 282 281 281
283 281 282 279 283 281 280 280 280 281 278 280 279 280 282 284 280 280 281 285 286 285 286 286 286 286 285 286 286 286 288 288 285 284 287 286 285 285 284 284 284 284 285 285 283 283 283 282 282 282 282 281 280 279
277 280 280 280 281 279 280 278 278 279 280 279 280 282 283 281 277 277 282 285 285 285 285 285 285 285 285 287 285 284 285 289 288 286 286 287 286 286 284 282 281 282 285 285 284 283 281 281 280 280 280 280 280 279
276 278 282 285 283 282 281 282 282 280 278 277 280 279 278 275 276 281 284 285 286 286 287 287 288 288 287 288 288 289 289 288 287 287 289 288 288 288 287 284 282 284 285 284 284 283 281 280 280 280 280 280 281 280
280 280 277 280 280 282 278 279 278 278 279 282 280 276 276 278 279 283 285 286 286 286 286 287 288 288 289 289 289 288 287 285 285 286 287 287 288 287 286 286 286 285 286 285 285 284 283 281 280 280 280 280 280 281
280 281 280 276 277 279 279 279 279 282 283 281 278 278 280 284 286 285 286 285 286 285 284 285 285 286 286 288 289 288 286 285 283 280 280 281 282 283 286 286 284 285 285 284 283 283 283 282 282 281 281 280 280 280
279 281 278 278 275 276 281 284 282 285 284 284 284 282 282 285 289 290 287 285 283 283 285 285 286 284 284 283 283 284 285 285 285 284 282 282 283 285 285 284 284 283 284 283 282 282 282 282 282 281 281 281 279 279
281 280 277 278 278 283 283 284 284 284 283 282 284 281 280 283 287 289 288 287 285 285 284 284 284 284 284 283 283 283 282 284 285 285 285 285 284 284 284 284 284 284 283 283 282 281 281 280 280 280 279 279 278 278
279 278 277 276 279 282 283 280 280 280 280 280 280 282 282 280 278 285 285 283 283 282 283 284 284 284 285 286 285 285 284 285 285 285 284 284 284 284 285 285 284 284 284 283 283 281 280 280 279 279 279 278 277 277
279 280 279 278 277 278 280 278 278 278 279 278 279 281 281 280 277 283 281 282 282 283 283 284 285 283 283 284 284 284 284 285 284 284 284 284 284 283 283 284 284 283 283 283 283 282 280 280 279 279 279 278 276 276

GFSWCAN_sfc_thetae_141.txt.gz
Theta_e
297 296 296 295 295 296 296 296 296 297 297 297 297 296 297 298 298 297 294 296 292 288 290 293 293 289 289 288 281 288 285 283 280 276 275 276 275 279 278 280 279 279 278 275 278 276 275 291 290 284 286 291 292 291
299 299 298 296 294 295 295 296 296 296 296 297 297 298 297 297 298 298 292 297 296 289 289 294 295 297 296 295 290 290 287 286 284 278 276 276 276 277 279 275 286 276 281 277 281 279 288 291 288 291 294 291 292 290
299 299 299 298 295 294 295 295 296 296 296 296 297 297 298 298 299 298 293 295 292 288 288 288 290 297 299 299 298 287 289 291 288 290 280 277 273 278 274 275 279 286 288 282 284 286 289 291 292 293 292 291 291 290
299 299 299 299 296 294 294 295 296 295 296 296 297 297 297 298 299 297 292 296 292 288 281 286 296 294 299 299 297 298 294 295 293 290 281 277 276 283 277 280 278 283 287 285 283 287 289 292 293 292 294 293 291 288
298 298 298 297 294 294 294 295 295 296 295 296 296 297 297 298 299 297 294 296 295 288 280 282 293 296 297 296 296 296 295 290 287 281 279 278 282 280 279 280 279 285 283 281 280 289 289 290 292 293 292 290 288 286
297 297 294 293 294 295 295 296 296 295 296 296 296 297 297 298 299 293 286 291 294 294 288 280 290 293 295 295 294 292 290 289 286 284 281 284 287 282 276 276 284 287 289 290 288 294 291 290 291 292 290 289 288 286
294 294 294 295 296 296 296 296 296 296 296 296 295 296 297 298 293 287 284 292 296 297 287 279 281 291 294 293 290 289 290 287 285 283 278 282 282 284 276 277 283 286 288 289 292 291 285 288 284 290 290 289 290 288
295 295 296 296 296 296 296 296 296 296 296 296 296 297 297 298 295 290 291 297 297 293 289 280 282 282 292 284 282 288 284 285 284 282 282 278 281 281 278 283 282 288 290 290 291 292 290 290 289 288 288 286 284 284
296 296 296 297 297 297 297 297 297 296 297 297 297 295 293 288 285 289 298 299 297 292 283 281 276 274 286 282 286 285 286 276 285 278 280 281 277 278 281 283 285 286 287 289 291 290 288 287 286 286 286 284 283 283
297 297 297 297 297 297 296 296 297 297 297 297 293 287 284 286 295 298 293 286 286 287 287 278 284 276 284 278 279 282 282 281 276 280 283 280 279 285 286 288 288 289 290 291 285 283 284 284 285 285 285 285 284 283
297 297 297 297 297 297 297 297 298 296 295 290 286 285 291 298 291 285 279 278 280 277 282 282 282 279 285 281 283 283 278 279 276 279 279 277 277 282 287 288 289 290 291 290 289 288 288 287 284 284 283 283 283 283
296 297 297 297 297 297 298 297 297 293 292 292 291 293 291 287 280 277 275 279 278 277 280 279 280 282 283 287 279 284 278 281 276 284 280 278 281 286 288 288 288 290 289 288 289 288 287 286 285 285 283 282 283 283
297 297 297 297 298 298 298 298 298 298 297 294 290 283 282 280 274 273 270 276 274 280 282 281 279 282 287 286 279 279 279 276 286 280 278 281 285 286 286 287 287 288 287 286 285 286 285 284 284 284 281 281 283 282
297 297 297 296 297 297 297 297 297 297 293 285 282 275 277 276 279 280 280 281 284 283 284 285 283 281 283 281 281 279 282 283 275 273 278 281 283 284 284 284 284 283 284 284 284 284 283 283 283 283 283 283 282 280
297 297 297 297 297 297 298 298 298 295 291 283 284 277 278 282 284 285 285 284 285 288 285 286 286 285 283 281 284 282 276 275 277 276 282 281 282 283 282 282 282 283 283 283 283 282 282 282 282 282 282 282 280 278
297 297 296 297 297 297 297 297 295 293 288 286 284 281 282 280 284 284 284 282 288 287 289 287 284 282 281 282 279 276 278 275 278 282 285 284 280 283 283 283 281 279 280 280 282 283 282 282 282 282 281 280 277 277
297 294 297 297 297 297 297 293 289 286 285 283 280 283 284 283 283 285 285 282 291 286 283 285 281 279 282 277 278 279 275 282 283 283 284 285 283 284 284 284 283 281 283 282 282 282 282 282 281 281 280 280 280 280
294 296 298 297 296 294 293 290 288 286 283 283 280 284 284 285 284 285 286 288 288 286 286 282 284 279 274 275 273 280 276 276 283 283 284 285 285 285 284 283 282 283 282 282 281 281 281 281 280 280 281 281 280 280
294 296 298 298 296 294 288 289 290 282 283 283 283 285 285 285 286 287 287 289 291 291 289 284 281 279 278 279 277 278 275 276 280 283 285 285 284 284 283 283 283 282 282 282 281 281 281 282 281 281 280 280 279 279
294 294 294 296 297 291 287 285 291 284 283 284 285 285 285 285 286 283 283 286 287 286 284 283 279 282 279 279 280 279 279 280 279 282 282 283 284 284 284 283 283 283 282 282 282 281 281 281 283 282 281 280 279 278
291 293 293 293 291 291 287 284 284 285 284 282 285 285 283 283 282 282 283 286 283 281 280 281 282 279 283 283 283 284 283 283 279 283 283 282 283 284 284 284 284 284 283 283 282 282 282 282 283 282 281 281 281 280
291 292 291 291 289 289 284 287 284 286 283 282 282 282 279 278 280 281 285 281 281 281 281 281 281 281 282 284 285 286 284 285 285 285 284 284 283 283 283 284 283 282 283 283 283 282 282 282 283 283 282 282 281 279
291 290 288 288 281 279 278 286 282 283 279 279 281 278 277 277 281 284 278 282 280 281 282 282 285 287 285 286 286 284 284 285 284 284 284 283 284 284 284 283 283 284 282 282 283 283 282 283 282 282 282 281 280 279
290 284 277 278 280 273 281 277 283 282 280 279 278 276 278 277 281 278 276 279 279 280 281 284 284 284 284 284 283 283 283 284 283 283 283 283 282 282 284 283 283 284 283 283 283 282 282 282 282 281 280 280 279 278
276 273 275 270 279 274 275 276 276 278 273 277 275 273 276 280 274 274 275 280 282 283 282 280 284 284 282 282 282 283 284 283 283 282 283 284 282 282 281 281 281 282 283 283 282 282 282 281 281 281 281 280 278 276
267 274 273 274 274 274 276 271 272 272 274 273 274 278 278 273 271 270 278 282 283 282 284 283 283 282 283 284 282 282 283 285 284 282 283 284 283 283 282 280 280 280 281 284 283 282 281 280 280 279 280 279 278 277
267 271 280 282 280 280 275 277 279 275 271 269 273 272 274 272 269 276 281 282 282 284 284 285 285 284 285 285 283 283 283 283 284 283 283 283 282 284 284 282 281 281 282 283 284 283 281 280 279 279 279 279 278 277
276 277 269 274 275 279 270 271 271 269 273 279 277 271 271 269 272 280 281 283 283 283 283 283 283 284 285 285 284 282 280 280 280 282 281 281 280 278 279 281 281 282 282 283 281 282 282 281 280 279 279 278 277 278
276 280 277 267 269 273 272 272 272 278 280 277 270 270 273 278 278 277 278 281 283 282 282 281 282 284 284 283 285 283 281 282 279 276 276 272 277 276 277 278 281 279 278 280 282 283 282 281 280 279 279 278 278 279
277 280 275 270 267 268 274 277 275 277 279 277 277 278 277 276 278 279 278 277 280 282 282 282 284 283 282 282 282 283 284 284 283 281 278 278 277 281 279 281 283 282 282 282 280 279 281 281 280 280 278 278 278 278
280 279 276 276 275 275 280 280 278 276 275 274 275 277 277 276 279 280 282 281 278 281 282 282 283 284 282 282 281 281 281 284 283 283 282 278 282 283 281 277 282 283 282 281 280 280 279 277 278 278 278 278 277 277
279 277 276 270 271 275 276 274 273 272 272 272 274 275 276 277 275 274 276 275 280 281 282 282 282 282 284 284 285 283 283 282 282 283 283 281 279 282 282 278 277 278 279 281 278 278 278 277 278 278 278 277 276 276
278 278 277 274 271 271 276 275 272 270 271 270 271 274 274 275 271 274 278 280 281 281 281 281 283 282 283 284 284 282 280 283 284 281 283 283 283 282 281 282 278 281 277 276 279 278 277 276 276 277 277 276 276 275

GFSWCAN_sfc_thetae_144.txt.gz
Theta_e
299 299 299 299 297 296 295 296 296 297 297 297 297 297 297 296 297 296 293 293 289 286 288 293 294 290 289 289 284 288 286 283 280 276 275 275 275 278 276 279 278 277 276 275 275 273 272 289 288 282 286 289 290 290
299 299 299 299 299 298 296 295 296 296 297 296 297 297 297 296 297 297 289 294 294 289 287 293 295 296 296 295 290 289 286 285 283 278 274 275 275 274 277 273 283 273 279 275 280 278 286 289 288 291 291 289 291 290
298 299 299 299 298 299 296 295 296 296 296 296 297 297 297 297 296 297 292 294 291 288 287 288 288 296 300 298 299 288 288 291 288 286 279 274 272 276 273 274 278 282 286 281 281 284 286 289 291 292 291 290 290 289
299 299 299 299 299 299 297 295 296 296 296 296 296 297 297 297 297 296 293 294 292 288 280 284 295 294 299 298 297 297 294 295 292 288 281 277 275 281 275 278 277 279 285 282 280 284 287 291 290 293 293 292 290 287
298 298 299 298 298 298 295 295 295 295 296 296 296 297 297 297 297 296 292 293 294 289 282 283 292 295 298 297 295 296 294 291 288 283 279 278 280 279 276 279 276 282 281 279 277 285 286 287 292 294 291 290 288 285
296 297 297 297 297 295 294 295 295 295 296 295 296 296 297 297 298 291 284 291 294 295 287 278 290 292 293 295 294 293 293 290 288 284 281 282 285 280 275 274 280 284 287 287 283 289 290 291 293 292 290 289 287 286
294 294 294 294 294 294 295 295 296 295 295 296 296 297 297 298 293 285 282 291 295 294 287 279 280 289 294 293 291 290 290 288 286 283 278 282 282 283 275 275 280 285 286 287 288 289 287 289 287 290 288 288 290 287
296 296 296 296 296 296 296 296 296 296 296 296 296 296 297 297 295 289 291 296 294 292 289 276 278 282 292 285 285 289 286 285 283 281 280 277 279 279 276 282 280 285 286 286 287 289 288 289 289 288 287 286 284 282
297 297 297 296 296 296 296 296 296 296 296 296 296 296 293 290 286 288 295 298 294 292 281 278 275 273 287 284 286 284 284 277 282 277 278 279 276 276 280 282 282 284 285 285 287 288 287 286 285 285 284 283 282 281
297 297 297 296 297 297 297 297 297 296 296 296 291 287 282 287 295 296 292 287 287 287 288 277 281 275 282 276 275 278 278 277 275 279 281 277 278 284 285 286 286 286 286 286 284 282 283 283 283 283 283 283 283 282
297 297 297 297 297 297 297 297 297 297 294 289 285 284 291 294 287 286 281 280 281 278 283 281 281 279 283 276 275 279 276 277 275 278 278 276 276 280 285 286 287 288 287 287 289 289 287 286 284 283 282 283 283 283
297 296 297 297 297 297 297 297 296 293 290 290 288 291 291 287 277 278 276 279 277 277 278 278 279 281 280 283 278 283 277 277 275 280 279 275 281 286 286 286 286 286 286 287 288 286 286 285 284 283 283 282 282 282
297 297 297 297 298 297 297 297 297 298 296 293 288 282 282 277 273 271 266 274 271 278 278 278 275 280 281 282 276 280 277 273 282 278 276 280 283 284 284 285 285 286 286 286 285 285 285 283 284 283 282 280 279 277
297 297 297 297 297 297 297 297 298 296 291 283 280 273 276 274 277 278 278 278 281 281 280 280 277 278 280 277 278 276 277 281 276 275 278 278 282 282 282 283 283 282 282 283 283 284 282 283 282 283 283 282 281 281
297 297 296 296 297 298 297 298 297 293 286 281 282 274 278 281 283 283 284 283 284 285 282 284 284 284 282 279 281 279 277 276 278 277 281 277 281 281 280 282 283 283 283 283 283 282 282 282 282 281 282 282 280 278
297 297 295 297 297 297 297 295 293 290 286 284 284 280 281 279 278 280 283 283 285 286 285 285 283 280 280 279 278 277 276 274 275 281 283 281 282 279 276 278 276 278 281 281 281 281 282 281 281 281 280 279 277 275
297 293 297 297 297 296 296 290 288 285 284 283 277 284 280 280 281 283 286 282 289 286 280 283 280 279 281 280 278 279 274 276 278 283 284 284 284 282 276 280 275 277 277 276 278 282 281 281 281 280 279 279 278 276
292 295 297 297 295 293 291 290 286 285 283 282 278 278 283 283 283 282 285 286 287 286 285 284 285 279 272 274 271 276 274 274 274 278 279 284 284 284 283 282 283 281 281 281 282 281 281 281 281 280 280 280 280 279
292 292 297 297 295 292 286 287 288 281 281 281 280 282 283 283 284 285 285 287 287 289 288 284 281 277 275 278 274 281 271 275 275 278 283 284 284 283 283 283 282 282 282 282 282 281 282 282 281 281 281 280 279 279
293 294 297 297 296 290 286 284 290 281 281 282 282 281 282 282 283 283 282 283 284 286 285 282 279 282 278 277 279 278 278 279 281 280 281 282 283 283 283 282 282 282 282 282 282 281 281 281 281 281 280 280 279 278
291 290 293 293 291 290 285 283 282 282 282 280 281 281 280 281 280 280 280 284 283 282 280 280 284 281 281 280 280 281 280 281 278 279 282 281 283 283 283 283 283 282 281 281 280 280 280 280 278 280 280 280 280 279
287 293 286 288 285 287 283 283 282 284 281 279 281 281 277 276 280 279 283 280 281 280 278 278 279 279 281 282 282 284 283 283 283 281 283 283 282 282 282 283 283 282 282 282 281 281 281 282 282 282 281 281 281 280
290 288 284 286 279 275 276 282 281 281 276 277 279 277 274 274 278 282 276 280 278 278 279 280 283 285 282 283 284 284 283 282 281 282 283 283 283 284 283 283 284 283 282 282 283 283 282 282 282 282 282 281 279 278
289 282 275 275 277 269 277 273 280 280 278 278 277 274 276 274 280 276 275 278 279 277 280 283 281 280 282 283 282 283 283 280 280 281 283 283 282 282 283 283 283 284 284 283 283 283 282 283 282 281 282 280 278 277
273 270 271 265 273 273 269 270 272 277 269 272 273 270 273 278 272 271 274 274 281 282 282 280 282 283 281 281 281 282 283 282 281 281 282 283 282 282 282 282 282 283 283 283 282 282 282 282 282 281 280 280 278 277
264 267 268 268 268 270 273 267 266 268 270 269 270 275 275 271 268 268 276 280 283 283 282 278 275 280 282 283 281 279 281 284 282 279 280 283 283 282 281 280 279 279 280 284 283 282 281 281 280 280 279 279 278 277
263 265 277 280 279 278 271 272 277 272 269 266 268 267 267 264 264 272 278 281 278 280 283 284 284 284 284 283 282 282 282 283 283 282 282 283 283 283 282 281 280 280 280 281 282 282 281 280 280 280 279 279 279 278
272 273 267 269 272 275 266 266 265 265 268 276 274 267 265 266 268 274 277 277 277 282 282 283 283 284 284 284 284 281 277 277 279 279 280 279 277 276 277 278 279 280 280 282 283 282 281 281 280 280 279 278 277 277
271 273 274 264 263 267 267 269 268 274 277 275 268 267 270 276 274 273 275 277 277 275 273 280 281 283 283 282 284 282 280 280 279 275 273 271 274 277 278 275 275 277 276 277 279 281 281 280 280 279 278 278 277 278
270 274 270 263 264 264 268 272 268 270 275 276 276 275 276 275 273 274 274 273 274 276 277 278 282 282 281 281 281 283 283 282 278 277 276 273 275 272 277 276 276 280 282 281 280 279 282 280 279 278 276 276 277 277
274 272 272 269 268 269 270 271 274 274 266 267 268 273 275 272 273 276 278 278 278 272 276 279 279 282 282 281 280 280 280 284 283 283 282 275 282 281 277 280 281 279 282 281 279 279 278 273 273 274 275 275 276 277
265 267 265 263 266 269 266 268 265 265 264 262 266 261 265 271 276 272 268 276 280 280 282 282 281 281 283 282 283 282 281 280 279 282 283 278 276 279 281 280 279 279 281 276 276 275 272 273 273 274 275 274 275 275
264 262 263 269 271 265 267 268 267 265 262 264 268 265 265 269 270 270 273 276 275 276 279 281 281 282 283 284 284 280 280 281 280 276 283 283 283 282 281 282 281 280 279 274 276 275 274 273 272 273 274 273 274 275

GFSWCAN_sfc_thetae_147.txt.gz
Theta_e
299 299 299 298 298 298 298 297 296 297 297 297 297 297 297 298 297 295 291 295 290 285 286 292 292 289 289 289 284 287 285 283 278 279 279 279 275 278 276 279 278 276 274 271 271 267 268 287 287 281 283 287 290 289
298 299 299 299 299 299 298 297 297 296 297 297 297 297 297 298 297 297 286 294 294 286 286 293 294 294 295 294 291 289 287 284 283 279 275 279 276 275 277 272 281 272 277 273 277 276 283 287 285 288 290 289 290 290
298 298 298 298 299 298 298 298 298 296 297 297 297 297 297 297 297 296 291 291 287 285 286 288 287 293 299 299 299 288 288 290 285 285 278 276 272 276 273 274 278 281 284 279 280 281 284 286 288 288 289 289 290 290
299 299 299 299 299 299 298 299 298 295 297 297 297 297 297 297 297 296 290 294 291 288 282 285 295 292 299 299 298 297 295 294 292 288 283 277 276 280 275 277 276 279 283 281 278 282 284 286 288 289 290 292 291 289
297 298 298 298 299 299 299 299 297 295 296 297 297 297 297 297 297 295 293 295 294 288 282 284 291 295 298 297 296 296 295 292 289 283 278 276 279 279 275 278 276 280 280 278 276 282 283 284 288 291 290 291 292 287
295 297 297 298 298 298 298 297 294 296 296 296 296 296 296 297 297 292 284 290 294 294 286 280 290 292 295 296 295 293 293 291 288 284 283 283 284 280 275 274 281 283 285 286 283 286 286 287 289 292 291 292 290 287
295 294 295 295 295 294 294 295 296 296 296 296 296 296 296 297 293 286 283 291 295 295 286 281 282 289 294 294 292 291 291 288 286 283 279 281 282 282 275 276 280 283 285 286 287 285 284 287 286 290 290 289 290 286
296 296 295 295 295 295 296 296 295 296 295 295 296 296 297 297 295 289 292 296 295 291 289 279 279 283 292 287 286 290 287 287 286 282 280 280 281 279 276 281 282 284 285 285 285 286 285 285 286 288 287 286 284 283
297 297 296 296 296 296 296 296 295 295 296 296 296 296 291 289 287 288 295 296 295 291 281 278 277 272 287 285 287 285 285 280 284 280 280 281 275 275 281 282 283 284 284 285 286 285 284 284 285 285 284 283 282 281
297 297 296 297 297 297 297 297 296 296 296 296 290 285 280 286 293 295 289 282 285 286 286 281 280 277 285 278 278 280 279 277 275 278 280 276 277 283 284 284 285 285 285 286 281 282 283 282 283 283 284 284 283 282
297 297 297 297 297 297 297 297 297 296 294 288 284 281 290 295 287 285 280 279 281 278 280 281 279 278 281 280 277 278 278 277 275 277 277 275 275 280 284 285 287 287 286 285 286 285 286 286 284 283 282 282 282 282
297 297 297 297 297 297 297 297 296 291 289 288 288 290 289 287 283 279 276 278 276 276 278 277 279 280 281 282 278 282 276 278 274 279 277 272 277 282 285 286 287 287 285 284 285 285 285 285 284 283 283 282 282 282
297 297 297 297 298 297 297 296 296 298 296 290 287 283 283 281 272 272 268 274 271 278 278 278 275 280 283 283 279 280 277 274 280 277 274 276 282 285 285 285 284 285 285 285 284 284 284 283 283 283 280 279 280 278
297 297 297 297 297 297 297 297 298 295 291 284 279 273 275 273 277 276 276 274 277 282 276 278 276 278 281 278 279 273 275 278 275 274 276 281 281 282 282 283 282 279 281 283 283 283 283 282 279 279 283 282 281 279
296 297 296 296 297 297 297 297 297 291 284 280 281 273 277 280 281 282 283 283 282 283 282 282 282 279 277 274 279 277 276 274 275 276 277 277 280 280 280 281 279 278 279 280 283 283 282 281 282 281 282 282 282 279
297 296 294 297 297 297 297 294 291 290 284 283 282 280 281 280 276 279 282 282 286 285 285 285 282 279 277 277 278 275 275 274 275 280 282 278 278 279 282 278 278 283 283 282 282 282 281 281 281 280 280 280 279 279
297 293 297 297 297 296 295 289 286 283 282 282 280 284 282 280 281 281 285 283 287 284 282 281 278 278 281 277 277 279 275 278 277 275 279 282 281 282 280 274 273 275 276 280 279 281 281 281 280 280 279 278 278 275
292 294 297 297 294 291 289 288 285 284 282 283 280 276 283 280 282 282 284 285 286 285 284 282 285 280 276 274 271 278 276 279 274 276 277 279 282 283 282 278 277 278 278 277 278 281 281 281 280 280 280 280 279 278
290 291 294 297 294 290 286 286 286 281 280 279 279 282 282 279 281 282 285 286 287 288 287 285 281 278 278 281 280 279 274 273 275 275 280 279 284 283 283 283 283 282 281 281 282 281 282 282 282 281 280 280 278 278
293 294 295 297 296 290 285 284 290 282 279 280 280 278 280 280 283 283 283 282 284 285 283 282 281 280 280 279 279 278 277 277 278 280 280 281 277 283 282 282 282 282 282 282 282 281 281 281 281 281 280 280 278 278
289 289 296 294 292 290 286 282 281 281 281 279 279 279 278 278 278 278 278 283 283 284 282 280 275 281 280 280 280 279 279 280 278 278 278 281 281 280 282 282 282 282 281 280 279 280 280 280 280 281 280 279 279 279
285 292 284 287 283 284 284 283 281 282 282 279 279 280 277 272 278 280 282 281 280 279 278 278 281 281 280 282 281 284 283 282 282 279 277 279 281 281 281 282 282 281 281 280 281 280 280 280 281 280 278 280 280 279
290 288 285 284 278 275 277 280 281 280 276 276 279 276 273 273 277 281 276 280 278 277 278 279 282 284 283 284 283 283 283 282 280 279 279 278 282 283 282 282 283 282 281 281 282 281 280 280 281 281 281 280 279 278
288 282 274 274 279 273 277 272 279 279 278 277 277 274 275 272 279 276 274 277 276 276 279 283 282 281 282 283 282 282 283 283 277 275 277 280 278 281 283 283 283 284 284 283 283 283 282 282 282 282 281 280 278 277
273 269 270 264 271 276 268 269 269 276 270 272 274 270 271 277 272 270 273 273 274 278 281 282 281 280 279 281 281 282 283 281 279 278 276 281 279 281 281 281 282 283 284 283 282 282 282 282 282 282 281 280 278 276
265 266 267 268 266 269 271 267 264 266 269 267 269 273 273 268 268 268 274 279 282 282 282 281 281 280 280 281 279 278 280 283 281 277 279 282 281 278 280 279 278 278 281 283 281 280 281 281 280 279 279 278 277 276
262 264 276 280 278 278 270 270 276 270 268 266 267 267 265 262 262 270 273 276 278 280 282 282 284 283 283 283 284 283 283 284 282 281 281 282 282 282 280 277 277 278 279 280 281 281 280 279 279 279 279 278 278 277
271 272 266 269 271 274 265 264 264 264 267 274 273 267 266 267 268 272 276 275 276 277 278 278 279 280 283 283 283 282 282 279 278 278 278 277 275 275 276 277 277 279 279 281 282 280 280 280 279 279 279 278 276 278
270 270 273 264 263 267 268 270 269 273 276 274 273 267 269 275 273 272 275 277 276 275 272 272 274 276 280 281 282 282 280 281 280 275 274 276 273 276 278 278 274 275 275 275 277 278 281 281 280 279 279 278 277 277
269 271 268 261 262 264 269 273 269 271 274 276 278 277 275 276 276 274 273 272 272 273 276 277 276 273 277 276 280 282 283 282 280 280 276 273 273 272 274 279 278 277 277 277 277 276 280 278 278 276 275 275 275 275
273 268 267 266 265 267 269 265 272 278 276 271 269 273 275 271 272 271 272 272 270 266 266 270 276 281 281 280 280 279 279 282 281 282 277 273 275 276 279 280 281 280 275 279 277 275 273 272 273 273 273 273 272 272
267 269 265 264 265 267 262 267 267 262 265 264 271 263 267 265 265 270 271 274 279 278 278 274 275 280 282 282 282 282 282 280 279 281 283 281 276 275 280 278 279 279 278 278 276 276 272 272 271 273 272 272 272 273
262 261 263 266 264 265 265 266 269 269 261 262 268 266 265 267 266 270 269 276 278 275 269 280 280 280 280 279 280 277 276 274 275 278 280 280 277 278 277 277 279 278 279 278 275 272 272 271 271 270 272 272 272 271